DL1GHN-6 Weather Reports


Display with metric or nautical units.
time (UTC)temp
F
wind
direction
speed
MPH
gust
MPH
rain 1hr
in
rain 24hr
in
rain mn
in
humidity
%
barometer
mb
20260505212517 56 200 2.0 7.0 0.00 0.24 0.24 85 1008.4
20260505212018 56 205 1.0 4.0 0.00 0.24 0.24 85 1008.4
20260505211518 56 171 1.0 4.0 0.00 0.24 0.24 85 1008.3
20260505211017 56 143 2.0 4.0 0.00 0.24 0.24 85 1008.4
20260505210518 56 177 2.0 4.0 0.00 0.24 0.24 85 1008.4
20260505210019 57 176 2.0 5.0 0.00 0.24 0.24 85 1008.4
20260505205518 57 161 2.0 4.0 0.00 0.24 0.24 84 1008.4
20260505205019 57 171 3.0 5.0 0.00 0.24 0.24 85 1008.3
20260505204517 57 138 3.0 7.0 0.00 0.24 0.24 85 1008.3
20260505204019 57 155 4.0 7.0 0.00 0.24 0.24 85 1008.3
20260505203519 57 196 4.0 8.0 0.00 0.24 0.24 85 1008.3
20260505203017 57 206 4.0 8.0 0.00 0.24 0.24 85 1008.3
20260505202518 58 227 4.0 9.0 0.00 0.24 0.24 84 1008.2
20260505202017 58 159 4.0 6.0 0.00 0.24 0.24 85 1008.2
20260505201517 58 159 3.0 5.0 0.00 0.24 0.24 85 1008.1
20260505201018 58 171 4.0 6.0 0.00 0.24 0.24 84 1008.2
20260505200517 58 175 3.0 6.0 0.00 0.24 0.24 84 1008.1
20260505200018 58 188 4.0 7.0 0.00 0.24 0.24 84 1008.1
20260505195517 58 203 5.0 8.0 0.00 0.24 0.24 85 1008.0
20260505195017 58 165 3.0 7.0 0.00 0.24 0.24 85 1008.1
20260505194518 58 177 4.0 8.0 0.00 0.24 0.24 85 1008.0
20260505194018 58 199 3.0 8.0 0.00 0.24 0.24 85 1008.0
20260505193518 58 220 2.0 10.0 0.00 0.24 0.24 86 1008.0
20260505193018 58 165 3.0 6.0 0.00 0.24 0.24 86 1007.9
20260505192517 58 171 3.0 7.0 0.00 0.24 0.24 86 1007.9
20260505192018 58 155 5.0 7.0 0.00 0.24 0.24 87 1007.8
20260505191519 58 183 3.0 5.0 0.00 0.24 0.24 87 1007.8
20260505191018 58 189 3.0 4.0 0.00 0.24 0.24 87 1007.6
20260505190518 58 164 2.0 3.0 0.00 0.24 0.24 87 1007.6
20260505190018 58 165 1.0 3.0 0.00 0.24 0.24 87 1007.6
20260505185519 58 165 1.0 2.0 0.00 0.25 0.24 87 1007.6
20260505185017 58 150 2.0 3.0 0.00 0.25 0.24 86 1007.6
20260505184517 58 147 1.0 2.0 0.00 0.25 0.24 86 1007.6
20260505184019 58 179 0.0 3.0 0.00 0.25 0.24 86 1007.6
20260505183517 58 199 2.0 4.0 0.00 0.25 0.24 86 1007.6
20260505183018 58 184 2.0 4.0 0.00 0.25 0.24 86 1007.6
20260505182517 58 160 3.0 5.0 0.00 0.25 0.24 87 1007.5
20260505182017 58 172 2.0 4.0 0.00 0.25 0.24 87 1007.4
20260505181517 58 169 1.0 3.0 0.00 0.25 0.24 87 1007.3
20260505181017 58 182 0.0 3.0 0.00 0.25 0.24 87 1007.2
20260505180517 58 144 1.0 3.0 0.00 0.25 0.24 86 1007.3
20260505180017 59 183 1.0 2.0 0.00 0.25 0.24 86 1007.4
20260505175518 59 171 0.0 4.0 0.00 0.25 0.24 86 1007.3
20260505175017 59 188 2.0 7.0 0.00 0.25 0.24 86 1007.3
20260505174518 59 184 3.0 4.0 0.00 0.25 0.24 87 1007.4
20260505174017 59 186 2.0 4.0 0.00 0.25 0.24 87 1007.4
20260505173519 59 244 2.0 4.0 0.00 0.25 0.24 87 1007.4
20260505173019 59 212 2.0 3.0 0.00 0.25 0.24 87 1007.5
20260505172519 58 190 3.0 5.0 0.00 0.25 0.24 87 1007.5
20260505172018 58 241 2.0 6.0 0.00 0.25 0.24 87 1007.5
20260505171518 58 198 2.0 7.0 0.00 0.25 0.24 87 1007.5
20260505171017 58 188 1.0 4.0 0.00 0.25 0.24 87 1007.5
20260505170517 58 169 2.0 8.0 0.00 0.25 0.24 87 1007.5
20260505170017 58 175 2.0 6.0 0.01 0.25 0.24 87 1007.5
20260505165517 58 207 1.0 6.0 0.01 0.25 0.24 87 1007.5
20260505165018 58 120 3.0 6.0 0.02 0.25 0.24 87 1007.3
20260505164518 58 169 2.0 6.0 0.02 0.25 0.24 87 1007.4
20260505164017 58 185 3.0 7.0 0.09 0.25 0.24 87 1007.5
20260505163518 58 182 4.0 8.0 0.17 0.25 0.24 86 1007.4
20260505163017 59 186 5.0 9.0 0.21 0.25 0.24 86 1007.5
20260505162517 59 217 5.0 9.0 0.22 0.25 0.24 87 1007.5
20260505162017 59 203 2.0 7.0 0.22 0.25 0.24 87 1007.5
20260505161519 59 175 4.0 7.0 0.22 0.25 0.24 86 1007.3
20260505161017 59 199 3.0 7.0 0.22 0.25 0.24 86 1007.4
20260505160518 60 230 5.0 8.0 0.22 0.25 0.24 85 1007.4
20260505153018 65 5 2.0 3.0 0.01 0.04 0.03 76 1007.0
20260505152517 65 321 1.0 3.0 0.00 0.03 0.02 73 1007.1
20260505152018 65 16 1.0 2.0 0.00 0.03 0.02 72 1007.0
20260505151518 66 5 1.0 4.0 0.00 0.03 0.02 71 1007.0
20260505151017 66 17 1.0 5.0 0.00 0.03 0.02 73 1007.0
20260505150517 66 63 1.0 4.0 0.00 0.03 0.02 72 1007.0
20260505140518 67 83 1.0 3.0 0.00 0.03 0.02 71 1007.2
20260505125017 63 355 1.0 4.0 0.00 0.03 0.02 80 1008.0
20260505124518 63 308 1.0 3.0 0.00 0.03 0.02 80 1008.0
20260505124017 63 135 3.0 5.0 0.00 0.03 0.02 78 1008.1
20260505123517 63 344 0.0 3.0 0.00 0.03 0.02 80 1008.1
20260505123017 63 355 1.0 3.0 0.00 0.03 0.02 82 1008.1
20260505122518 63 279 1.0 3.0 0.00 0.03 0.02 80 1008.1
20260505122017 62 279 0.0 4.0 0.00 0.03 0.02 81 1008.1
20260505121518 63 56 1.0 3.0 0.00 0.03 0.02 80 1008.2
20260505121018 63 9 1.0 3.0 0.00 0.03 0.02 81 1008.3
20260505120518 63 285 2.0 5.0 0.00 0.03 0.02 82 1008.4
20260505120018 63 29 3.0 5.0 0.00 0.03 0.02 82 1008.4
20260505115518 62 355 0.0 5.0 0.00 0.03 0.02 82 1008.4
20260505115017 62 281 2.0 4.0 0.00 0.03 0.02 82 1008.4
20260505114518 62 327 1.0 4.0 0.00 0.03 0.02 83 1008.4
20260505114017 62 273 1.0 2.0 0.00 0.03 0.02 83 1008.5
20260505113519 62 51 1.0 4.0 0.00 0.03 0.02 82 1008.5
20260505113017 62 303 1.0 3.0 0.00 0.03 0.02 82 1008.6
20260505112518 62 327 1.0 3.0 0.00 0.03 0.02 82 1008.6
20260505112018 62 286 0.0 3.0 0.00 0.03 0.02 83 1008.6
20260505111517 62 273 0.0 2.0 0.00 0.03 0.02 83 1008.6
20260505111019 62 317 1.0 3.0 0.00 0.03 0.02 83 1008.7
20260505110517 62 300 1.0 3.0 0.00 0.03 0.02 82 1008.6
20260505102018 63 333 1.0 2.0 0.00 0.03 0.02 79 1008.8
20260505101519 62 290 1.0 4.0 0.00 0.03 0.02 78 1008.8
20260505101017 63 314 1.0 3.0 0.00 0.03 0.02 78 1008.7
20260505100519 63 343 3.0 4.0 0.00 0.03 0.02 78 1008.7
20260505100019 63 307 2.0 5.0 0.00 0.03 0.02 77 1008.7
20260505095518 63 355 1.0 3.0 0.00 0.03 0.02 77 1008.7
20260505095019 63 273 2.0 3.0 0.00 0.03 0.02 78 1008.8
20260505094517 63 290 2.0 5.0 0.00 0.03 0.02 76 1008.8
20260505094019 63 233 4.0 6.0 0.00 0.03 0.02 78 1008.9
20260505093518 62 252 1.0 3.0 0.00 0.03 0.02 78 1008.9
20260505093017 62 232 1.0 2.0 0.00 0.03 0.02 78 1009.0
20260505092517 62 234 1.0 3.0 0.00 0.03 0.02 78 1009.0
20260505092017 62 248 0.0 4.0 0.00 0.03 0.02 78 1009.1
20260505091517 63 141 1.0 2.0 0.00 0.03 0.02 80 1009.1
20260505091018 62 88 1.0 2.0 0.00 0.03 0.02 80 1009.2
20260505090517 62 186 1.0 3.0 0.00 0.03 0.02 82 1009.2
20260505090018 62 226 2.0 4.0 0.00 0.03 0.02 82 1009.3
20260505085518 62 253 1.0 3.0 0.00 0.03 0.02 82 1009.3
20260505085018 62 304 1.0 4.0 0.00 0.03 0.02 82 1009.3
20260505084518 61 288 3.0 5.0 0.00 0.03 0.02 84 1009.3
20260505084017 60 258 3.0 4.0 0.00 0.03 0.02 84 1009.3
20260505083518 60 234 0.0 3.0 0.01 0.03 0.02 84 1009.4
20260505083019 60 265 4.0 5.0 0.01 0.03 0.02 86 1009.3
20260505082518 59 263 1.0 3.0 0.02 0.03 0.02 87 1009.3
20260505082018 59 17 0.0 3.0 0.02 0.03 0.02 86 1009.5
20260505081517 58 252 0.0 2.0 0.02 0.03 0.02 86 1009.4
20260505081018 58 134 0.0 1.0 0.02 0.03 0.02 86 1009.4
20260505080518 58 120 0.0 1.0 0.02 0.03 0.02 86 1009.5
20260505080018 58 162 0.0 1.0 0.02 0.03 0.02 87 1009.5
20260505075517 58 134 0.0 0.0 0.02 0.03 0.02 87 1009.5
20260505075017 58 126 0.0 0.0 0.02 0.03 0.02 87 1009.5
20260505074518 58 123 0.0 0.0 0.02 0.03 0.02 87 1009.6
20260505074017 58 135 0.0 1.0 0.02 0.03 0.02 87 1009.7
20260505073517 57 136 0.0 1.0 0.02 0.02 0.02 87 1009.7
20260505073017 57 238 0.0 2.0 0.02 0.02 0.02 87 1009.7
20260505072518 57 217 0.0 2.0 0.01 0.02 0.01 86 1009.8
20260505072017 57 192 1.0 2.0 0.01 0.02 0.01 86 1009.9
20260505071518 57 224 0.0 1.0 0.01 0.02 0.01 86 1009.9
20260505071017 57 148 2.0 3.0 0.00 0.01 0.00 86 1009.9
20260505070517 57 150 2.0 4.0 0.00 0.01 0.00 87 1010.0
20260505070019 57 147 1.0 3.0 0.00 0.01 0.00 87 1010.0
20260505065518 57 180 1.0 3.0 0.00 0.01 0.00 86 1010.0
20260505065019 57 188 2.0 4.0 0.00 0.01 0.00 87 1010.0
20260505064517 56 234 1.0 2.0 0.00 0.01 0.00 87 1010.0
20260505064019 56 188 2.0 3.0 0.00 0.01 0.00 88 1010.0
20260505063519 56 163 1.0 5.0 0.00 0.01 0.00 88 1010.0
20260505063017 56 223 1.0 5.0 0.00 0.01 0.00 88 1010.0
20260505062517 56 185 0.0 3.0 0.00 0.01 0.00 89 1009.9
20260505062017 56 252 1.0 2.0 0.00 0.01 0.00 89 1009.9
20260505061517 56 190 0.0 2.0 0.00 0.01 0.00 89 1009.9
20260505061018 56 200 1.0 2.0 0.00 0.01 0.00 89 1009.9
20260505060517 55 174 1.0 2.0 0.00 0.01 0.00 89 1009.9
20260505060018 55 157 0.0 2.0 0.00 0.01 0.00 89 1009.8
20260505055517 55 188 0.0 2.0 0.00 0.01 0.00 89 1009.8
20260505055017 55 141 0.0 1.0 0.00 0.01 0.00 89 1009.8
20260505054517 55 128 1.0 2.0 0.00 0.01 0.00 89 1009.8
20260505054017 54 119 1.0 2.0 0.00 0.01 0.00 89 1009.8
20260505053518 54 176 1.0 3.0 0.00 0.01 0.00 89 1009.8
20260505053018 54 236 1.0 3.0 0.00 0.01 0.00 89 1009.7
20260505052517 54 236 1.0 2.0 0.00 0.01 0.00 90 1009.7
20260505052018 54 355 0.0 2.0 0.00 0.01 0.00 90 1009.7
20260505051519 54 321 0.0 2.0 0.00 0.01 0.00 90 1009.7
20260505051018 54 298 0.0 3.0 0.00 0.01 0.00 90 1009.6
20260505050518 54 310 1.0 4.0 0.00 0.01 0.00 90 1009.7
20260505041518 52 53 0.0 0.0 0.00 0.01 0.00 89 1009.6
20260505041018 52 51 0.0 0.0 0.00 0.01 0.00 89 1009.6
20260505040517 52 51 0.0 0.0 0.00 0.01 0.00 89 1009.8
20260505040018 51 51 1.0 2.0 0.00 0.01 0.00 89 1009.7
20260505035518 51 128 0.0 0.0 0.00 0.01 0.00 89 1009.8
20260505035018 51 128 0.0 1.0 0.00 0.01 0.00 88 1009.8
20260505034518 51 128 0.0 0.0 0.00 0.01 0.00 88 1009.9
20260505034019 51 128 0.0 0.0 0.00 0.01 0.00 88 1009.9
20260505033518 51 128 0.0 1.0 0.00 0.01 0.00 88 1009.9
20260505033019 51 128 1.0 2.0 0.00 0.01 0.00 88 1009.9
20260505032517 51 107 0.0 0.0 0.00 0.01 0.00 88 1009.9
20260505031752 52 107 0.0 1.0 0.00 0.01 0.00 89 1009.9
20260505031251 52 101 0.0 0.0 0.00 0.01 0.00 89 1010.0
20260505030751 52 101 0.0 1.0 0.00 0.01 0.00 88 1010.0
20260505030251 52 100 0.0 1.0 0.00 0.01 0.00 88 1010.0
20260505025751 52 102 0.0 2.0 0.00 0.01 0.00 89 1010.1
20260505025250 52 131 1.0 2.0 0.00 0.01 0.00 88 1010.2
20260505024751 52 156 1.0 3.0 0.00 0.01 0.00 88 1010.1
20260505024250 52 134 0.0 2.0 0.00 0.01 0.00 88 1010.1
20260505023751 51 182 0.0 1.0 0.00 0.01 0.00 88 1010.1
20260505023251 51 219 0.0 2.0 0.00 0.01 0.00 88 1010.2
20260505022750 51 203 0.0 1.0 0.00 0.01 0.00 88 1010.2
20260505022251 51 63 0.0 1.0 0.00 0.01 0.00 87 1010.3
20260505021751 51 63 0.0 0.0 0.00 0.01 0.00 87 1010.3
20260505021251 51 63 0.0 0.0 0.00 0.01 0.00 87 1010.4
20260505020751 51 63 0.0 0.0 0.00 0.01 0.00 87 1010.4
20260505020250 51 63 0.0 1.0 0.00 0.01 0.00 87 1010.6
20260505015751 51 63 1.0 2.0 0.00 0.01 0.00 87 1010.6
20260505015250 51 61 1.0 2.0 0.00 0.01 0.00 87 1010.8
20260505014750 52 322 0.0 0.0 0.00 0.01 0.00 86 1010.8
20260505014251 52 321 0.0 1.0 0.00 0.01 0.00 87 1010.8
20260505013750 52 321 0.0 1.0 0.00 0.01 0.00 87 1010.8
20260505013252 52 325 0.0 1.0 0.00 0.01 0.00 87 1010.8
20260505012751 52 84 0.0 1.0 0.00 0.01 0.00 86 1010.9
20260505012250 52 153 0.0 1.0 0.00 0.01 0.00 86 1010.9
20260505011750 52 153 0.0 0.0 0.00 0.01 0.00 86 1011.1
20260505011251 53 153 0.0 0.0 0.00 0.01 0.00 86 1011.1
20260505010751 53 170 0.0 0.0 0.00 0.01 0.00 86 1011.2
20260505010250 53 170 0.0 0.0 0.00 0.01 0.00 86 1011.2
20260505005750 53 170 0.0 2.0 0.00 0.01 0.00 86 1011.3
20260505005251 53 134 0.0 1.0 0.00 0.01 0.00 86 1011.3
20260505004751 53 130 0.0 0.0 0.00 0.01 0.00 85 1011.3
20260505004250 53 130 0.0 0.0 0.00 0.01 0.00 85 1011.5
20260505003751 53 130 0.0 2.0 0.00 0.01 0.00 85 1011.4
20260505003251 53 210 0.0 1.0 0.00 0.01 0.00 85 1011.5
20260505002751 54 115 1.0 2.0 0.00 0.01 0.00 85 1011.5
20260505002251 54 157 0.0 1.0 0.00 0.01 0.00 85 1011.6
20260505001750 54 148 0.0 1.0 0.00 0.01 0.00 85 1011.6
20260505001252 54 148 0.0 2.0 0.00 0.01 0.00 85 1011.6
20260505000751 54 148 0.0 2.0 0.00 0.01 0.00 84 1011.6
20260505000252 54 148 0.0 0.0 0.00 0.01 0.00 84 1011.6
20260504235750 54 148 0.0 0.0 0.00 0.01 0.00 84 1011.7
20260504235252 55 148 0.0 1.0 0.00 0.01 0.00 84 1011.7
20260504234750 55 148 0.0 0.0 0.00 0.01 0.00 84 1011.8
20260504234251 55 148 0.0 1.0 0.00 0.01 0.00 84 1011.8
20260504233750 55 148 0.0 1.0 0.00 0.01 0.00 84 1011.9
20260504233250 55 148 0.0 0.0 0.00 0.01 0.00 84 1012.0
20260504232750 55 148 0.0 1.0 0.00 0.01 0.00 83 1012.0
20260504232250 55 148 0.0 1.0 0.00 0.01 0.00 83 1011.9
20260504231751 56 159 0.0 2.0 0.00 0.01 0.00 83 1012.1
20260504231251 56 306 0.0 1.0 0.00 0.01 0.00 82 1012.0
20260504230750 56 306 0.0 2.0 0.00 0.01 0.00 82 1012.0
20260504230251 56 306 0.0 1.0 0.00 0.01 0.00 82 1012.0
20260504225750 57 306 0.0 1.0 0.00 0.01 0.00 82 1012.1
20260504225251 57 297 0.0 2.0 0.00 0.01 0.00 82 1012.1
20260504224751 57 84 1.0 2.0 0.00 0.01 0.00 82 1012.1
20260504224251 57 108 0.0 2.0 0.00 0.01 0.00 82 1012.1
20260504223750 58 92 1.0 2.0 0.00 0.01 0.00 82 1012.1
20260504223251 58 80 0.0 2.0 0.00 0.01 0.00 82 1012.1
20260504222750 58 61 0.0 2.0 0.00 0.01 0.00 82 1012.1
20260504222251 58 84 1.0 3.0 0.00 0.01 0.00 82 1012.1
20260504221751 58 64 0.0 2.0 0.00 0.01 0.00 82 1012.2
20260504221250 58 23 1.0 2.0 0.00 0.01 0.00 82 1012.3
20260504220750 58 360 0.0 2.0 0.00 0.01 0.00 82 1012.3
20260504220250 58 153 1.0 2.0 0.00 0.01 0.00 82 1012.4
20260504215752 58 192 2.0 3.0 0.00 0.01 0.01 82 1012.5
20260504215251 58 103 0.0 1.0 0.00 0.01 0.01 83 1012.5
20260504214752 58 101 1.0 4.0 0.00 0.01 0.01 83 1012.5
20260504214250 58 146 0.0 3.0 0.00 0.01 0.01 83 1012.6
20260504213752 58 155 3.0 4.0 0.00 0.01 0.01 83 1012.7
20260504213251 58 175 2.0 4.0 0.00 0.01 0.01 84 1012.8
20260504212751 57 189 0.0 2.0 0.00 0.01 0.01 84 1012.8